| time (UTC) | temp F | wind direction | speed knots | gust knots | rain 1hr in | rain 24hr in | rain mn in | humidity % | barometer mb |
| 20260505200003 | 49 | 35 | 3.5 | 8.7 | 0.00 | 0.00 | 0.00 | 82 | 1015.7 |
| 20260505194503 | 50 | 30 | 4.3 | 10.4 | 0.00 | 0.00 | 0.00 | 81 | 1015.5 |
| 20260505193624 | 50 | 28 | 4.3 | 9.6 | 0.00 | 0.00 | 0.00 | 81 | 1015.4 |
| 20260505192703 | 50 | 32 | 4.3 | 10.4 | 0.00 | 0.00 | 0.00 | 82 | 1015.2 |
| 20260505191803 | 51 | 39 | 4.3 | 10.4 | 0.00 | 0.00 | 0.00 | 81 | 1015.1 |
| 20260505190903 | 50 | 36 | 5.2 | 13.9 | 0.00 | 0.00 | 0.00 | 81 | 1015.0 |
| 20260505190003 | 51 | 36 | 5.2 | 9.6 | 0.00 | 0.00 | 0.00 | 81 | 1015.0 |
| 20260505185403 | 51 | 37 | 6.1 | 13.0 | 0.00 | 0.00 | 0.00 | 81 | 1014.9 |
| 20260505184503 | 52 | 33 | 5.2 | 13.0 | 0.00 | 0.00 | 0.00 | 80 | 1014.9 |
| 20260505183603 | 53 | 33 | 3.5 | 9.6 | 0.00 | 0.00 | 0.00 | 80 | 1014.7 |
| 20260505182703 | 54 | 354 | 3.5 | 7.8 | 0.00 | 0.00 | 0.00 | 80 | 1014.6 |
| 20260505181803 | 54 | 287 | 2.6 | 7.0 | 0.00 | 0.00 | 0.00 | 80 | 1014.5 |
| 20260505180924 | 54 | 285 | 5.2 | 9.6 | 0.00 | 0.00 | 0.00 | 79 | 1014.5 |
| 20260505180003 | 54 | 286 | 5.2 | 11.3 | 0.00 | 0.00 | 0.00 | 81 | 1014.5 |
| 20260505175403 | 54 | 282 | 6.1 | 11.3 | 0.00 | 0.00 | 0.00 | 81 | 1014.5 |
| 20260505174524 | 54 | 291 | 7.0 | 13.0 | 0.00 | 0.00 | 0.00 | 81 | 1014.5 |
| 20260505173603 | 54 | 290 | 7.0 | 13.9 | 0.00 | 0.00 | 0.00 | 80 | 1014.6 |
| 20260505172724 | 55 | 283 | 7.0 | 13.0 | 0.00 | 0.00 | 0.00 | 80 | 1014.5 |
| 20260505171803 | 55 | 281 | 7.8 | 15.6 | 0.00 | 0.00 | 0.00 | 80 | 1014.7 |
| 20260505170903 | 56 | 290 | 7.0 | 15.6 | 0.00 | 0.00 | 0.00 | 80 | 1014.6 |
| 20260505170003 | 55 | 282 | 7.0 | 13.0 | 0.00 | 0.00 | 0.00 | 80 | 1014.7 |
| 20260505165403 | 54 | 287 | 7.8 | 13.9 | 0.00 | 0.00 | 0.00 | 80 | 1014.7 |
| 20260505164503 | 54 | 286 | 7.0 | 14.8 | 0.00 | 0.00 | 0.00 | 80 | 1014.7 |
| 20260505163603 | 55 | 277 | 7.8 | 14.8 | 0.00 | 0.00 | 0.00 | 80 | 1014.7 |
| 20260505162703 | 56 | 281 | 6.1 | 15.6 | 0.00 | 0.00 | 0.00 | 80 | 1014.9 |
| 20260505161803 | 58 | 281 | 6.1 | 12.2 | 0.00 | 0.00 | 0.00 | 80 | 1014.7 |
| 20260505160903 | 57 | 268 | 5.2 | 11.3 | 0.00 | 0.00 | 0.00 | 80 | 1014.7 |
| 20260505152703 | 56 | 267 | 5.2 | 13.0 | 0.00 | 0.00 | 0.00 | 80 | 1014.7 |
| 20260505151803 | 57 | 255 | 5.2 | 11.3 | 0.00 | 0.00 | 0.00 | 80 | 1014.7 |
| 20260505150903 | 59 | 266 | 5.2 | 12.2 | 0.00 | 0.00 | 0.00 | 78 | 1014.7 |
| 20260505124503 | 55 | 271 | 4.3 | 12.2 | 0.00 | 0.00 | 0.00 | 78 | 1015.0 |
| 20260505123603 | 55 | 288 | 3.5 | 8.7 | 0.00 | 0.00 | 0.00 | 78 | 1015.0 |
| 20260505122703 | 55 | 281 | 5.2 | 12.2 | 0.00 | 0.00 | 0.00 | 78 | 1015.2 |
| 20260505121803 | 56 | 276 | 5.2 | 10.4 | 0.00 | 0.00 | 0.00 | 75 | 1015.1 |
| 20260505120903 | 55 | 286 | 6.1 | 10.4 | 0.00 | 0.00 | 0.00 | 78 | 1015.2 |
| 20260505120024 | 55 | 267 | 4.3 | 10.4 | 0.00 | 0.00 | 0.00 | 78 | 1015.2 |
| 20260505115424 | 55 | 280 | 5.2 | 11.3 | 0.00 | 0.00 | 0.00 | 78 | 1015.1 |
| 20260505114524 | 55 | 278 | 5.2 | 11.3 | 0.00 | 0.00 | 0.00 | 77 | 1015.2 |
| 20260505113603 | 55 | 275 | 6.1 | 12.2 | 0.00 | 0.00 | 0.00 | 77 | 1015.2 |
| 20260505112703 | 55 | 266 | 5.2 | 10.4 | 0.00 | 0.00 | 0.00 | 77 | 1015.2 |
| 20260505111803 | 55 | 269 | 5.2 | 11.3 | 0.00 | 0.00 | 0.00 | 76 | 1015.1 |
| 20260505110924 | 55 | 278 | 5.2 | 12.2 | 0.00 | 0.00 | 0.00 | 74 | 1015.1 |
| 20260505101824 | 55 | 286 | 6.1 | 12.2 | 0.00 | 0.00 | 0.00 | 76 | 1015.1 |
| 20260505100924 | 55 | 283 | 7.0 | 12.2 | 0.00 | 0.00 | 0.00 | 75 | 1015.2 |
| 20260505100003 | 55 | 272 | 6.1 | 13.0 | 0.00 | 0.00 | 0.00 | 76 | 1015.2 |
| 20260505095403 | 55 | 262 | 6.1 | 13.0 | 0.00 | 0.00 | 0.00 | 76 | 1015.2 |
| 20260505094524 | 55 | 250 | 5.2 | 11.3 | 0.00 | 0.00 | 0.00 | 76 | 1015.1 |
| 20260505093603 | 54 | 267 | 5.2 | 10.4 | 0.00 | 0.00 | 0.00 | 76 | 1015.2 |
| 20260505092703 | 54 | 261 | 4.3 | 10.4 | 0.00 | 0.00 | 0.00 | 77 | 1015.1 |
| 20260505091803 | 54 | 245 | 3.5 | 8.7 | 0.00 | 0.00 | 0.00 | 77 | 1015.1 |
| 20260505090903 | 53 | 238 | 3.5 | 7.8 | 0.00 | 0.00 | 0.00 | 76 | 1015.1 |
| 20260505090003 | 53 | 251 | 4.3 | 10.4 | 0.00 | 0.00 | 0.00 | 76 | 1015.2 |
| 20260505085403 | 53 | 256 | 4.3 | 11.3 | 0.00 | 0.00 | 0.00 | 76 | 1015.2 |
| 20260505084503 | 52 | 239 | 3.5 | 9.6 | 0.00 | 0.00 | 0.00 | 76 | 1015.2 |
| 20260505083603 | 52 | 244 | 5.2 | 10.4 | 0.00 | 0.00 | 0.00 | 75 | 1015.3 |
| 20260505082703 | 51 | 282 | 6.1 | 12.2 | 0.00 | 0.00 | 0.00 | 76 | 1015.2 |
| 20260505081803 | 52 | 279 | 5.2 | 12.2 | 0.00 | 0.00 | 0.00 | 72 | 1015.2 |
| 20260505080924 | 52 | 261 | 3.5 | 7.8 | 0.00 | 0.00 | 0.00 | 76 | 1015.2 |
| 20260505080003 | 51 | 276 | 3.5 | 9.6 | 0.00 | 0.00 | 0.00 | 77 | 1015.1 |
| 20260505075403 | 51 | 276 | 2.6 | 9.6 | 0.00 | 0.00 | 0.00 | 77 | 1015.1 |
| 20260505074524 | 51 | 294 | 1.7 | 6.1 | 0.00 | 0.00 | 0.00 | 77 | 1015.1 |
| 20260505073603 | 50 | 280 | 0.9 | 3.5 | 0.00 | 0.00 | 0.00 | 77 | 1015.1 |
| 20260505072703 | 50 | 276 | 0.0 | 1.7 | 0.00 | 0.00 | 0.00 | 77 | 1015.1 |
| 20260505071824 | 50 | 292 | 2.6 | 7.0 | 0.00 | 0.00 | 0.00 | 75 | 1015.2 |
| 20260505070903 | 50 | 295 | 4.3 | 8.7 | 0.00 | 0.00 | 0.00 | 74 | 1015.4 |
| 20260505070003 | 50 | 302 | 7.0 | 13.0 | 0.00 | 0.00 | 0.00 | 76 | 1015.4 |
| 20260505065403 | 50 | 302 | 6.1 | 11.3 | 0.00 | 0.00 | 0.00 | 76 | 1015.3 |
| 20260505064503 | 50 | 299 | 4.3 | 8.7 | 0.00 | 0.00 | 0.00 | 77 | 1015.3 |
| 20260505063624 | 50 | 295 | 5.2 | 10.4 | 0.00 | 0.00 | 0.00 | 77 | 1015.3 |
| 20260505062724 | 50 | 290 | 5.2 | 9.6 | 0.00 | 0.00 | 0.00 | 77 | 1015.2 |
| 20260505061824 | 51 | 287 | 4.3 | 9.6 | 0.00 | 0.00 | 0.00 | 76 | 1015.2 |
| 20260505060903 | 51 | 284 | 4.3 | 10.4 | 0.00 | 0.00 | 0.00 | 74 | 1015.2 |
| 20260505060003 | 50 | 291 | 4.3 | 9.6 | 0.00 | 0.00 | 0.00 | 77 | 1015.1 |
| 20260505055403 | 50 | 294 | 3.5 | 10.4 | 0.00 | 0.00 | 0.00 | 78 | 1015.1 |
| 20260505054503 | 50 | 297 | 3.5 | 10.4 | 0.00 | 0.00 | 0.00 | 78 | 1014.9 |
| 20260505053603 | 50 | 287 | 3.5 | 9.6 | 0.00 | 0.00 | 0.00 | 78 | 1015.0 |
| 20260505052703 | 50 | 290 | 3.5 | 7.8 | 0.00 | 0.00 | 0.00 | 78 | 1015.0 |
| 20260505051803 | 50 | 292 | 3.5 | 7.8 | 0.00 | 0.00 | 0.00 | 78 | 1014.9 |
| 20260505050903 | 50 | 289 | 4.3 | 7.8 | 0.00 | 0.00 | 0.00 | 78 | 1014.9 |
| 20260505040924 | 48 | 281 | 2.6 | 7.0 | 0.00 | 0.00 | 0.00 | 79 | 1014.9 |
| 20260505040024 | 48 | 297 | 3.5 | 8.7 | 0.00 | 0.00 | 0.00 | 79 | 1014.8 |
| 20260505035424 | 48 | 296 | 3.5 | 7.8 | 0.00 | 0.00 | 0.00 | 80 | 1014.7 |
| 20260505034503 | 48 | 295 | 3.5 | 7.0 | 0.00 | 0.00 | 0.00 | 79 | 1014.7 |
| 20260505033624 | 48 | 287 | 3.5 | 7.0 | 0.00 | 0.00 | 0.00 | 79 | 1014.9 |
| 20260505032703 | 48 | 285 | 3.5 | 8.7 | 0.00 | 0.00 | 0.00 | 79 | 1014.9 |
| 20260505031803 | 49 | 282 | 4.3 | 10.4 | 0.00 | 0.00 | 0.00 | 78 | 1014.9 |
| 20260505030903 | 49 | 278 | 5.2 | 9.6 | 0.00 | 0.00 | 0.00 | 79 | 1014.9 |
| 20260505030003 | 49 | 283 | 4.3 | 10.4 | 0.00 | 0.00 | 0.00 | 79 | 1014.8 |
| 20260505025403 | 49 | 278 | 4.3 | 10.4 | 0.00 | 0.00 | 0.00 | 79 | 1014.8 |
| 20260505024524 | 49 | 279 | 5.2 | 10.4 | 0.00 | 0.00 | 0.00 | 79 | 1014.9 |
| 20260505023603 | 49 | 283 | 4.3 | 9.6 | 0.00 | 0.00 | 0.00 | 79 | 1015.0 |
| 20260505022703 | 49 | 277 | 4.3 | 11.3 | 0.00 | 0.00 | 0.00 | 79 | 1015.1 |
| 20260505021803 | 50 | 280 | 4.3 | 8.7 | 0.00 | 0.00 | 0.00 | 79 | 1015.1 |
| 20260505020903 | 50 | 282 | 5.2 | 8.7 | 0.00 | 0.00 | 0.00 | 77 | 1015.2 |
| 20260505020003 | 49 | 280 | 4.3 | 8.7 | 0.00 | 0.00 | 0.00 | 79 | 1015.2 |
| 20260505015424 | 49 | 284 | 4.3 | 10.4 | 0.00 | 0.00 | 0.00 | 80 | 1015.2 |
| 20260505014503 | 49 | 284 | 4.3 | 8.7 | 0.00 | 0.00 | 0.00 | 80 | 1015.2 |
| 20260505013603 | 49 | 271 | 5.2 | 11.3 | 0.00 | 0.00 | 0.00 | 80 | 1015.5 |
| 20260505012703 | 50 | 256 | 3.5 | 8.7 | 0.00 | 0.00 | 0.00 | 80 | 1015.2 |
| 20260505011824 | 50 | 245 | 3.5 | 7.8 | 0.00 | 0.00 | 0.00 | 80 | 1015.3 |
| 20260505010903 | 50 | 256 | 3.5 | 8.7 | 0.00 | 0.00 | 0.00 | 80 | 1015.5 |
| 20260505010003 | 50 | 257 | 3.5 | 8.7 | 0.00 | 0.00 | 0.00 | 80 | 1015.5 |
| 20260505005403 | 50 | 255 | 2.6 | 8.7 | 0.00 | 0.00 | 0.00 | 80 | 1015.6 |
| 20260505004503 | 50 | 247 | 3.5 | 8.7 | 0.00 | 0.00 | 0.00 | 80 | 1015.4 |
| 20260505003603 | 50 | 238 | 2.6 | 9.6 | 0.00 | 0.00 | 0.00 | 80 | 1015.5 |
| 20260505002703 | 50 | 247 | 2.6 | 9.6 | 0.00 | 0.00 | 0.00 | 80 | 1015.6 |
| 20260505001803 | 51 | 246 | 3.5 | 7.8 | 0.00 | 0.00 | 0.00 | 76 | 1015.7 |
| 20260505000924 | 50 | 241 | 3.5 | 9.6 | 0.00 | 0.00 | 0.00 | 80 | 1015.6 |
| 20260505000003 | 50 | 247 | 3.5 | 7.8 | 0.00 | 0.00 | 0.00 | 81 | 1015.8 |
| 20260504235424 | 50 | 241 | 3.5 | 7.8 | 0.00 | 0.00 | 0.00 | 81 | 1015.8 |
| 20260504234524 | 50 | 251 | 2.6 | 7.0 | 0.00 | 0.00 | 0.00 | 81 | 1015.8 |
| 20260504233603 | 50 | 256 | 2.6 | 7.0 | 0.00 | 0.00 | 0.00 | 81 | 1015.9 |
| 20260504232703 | 50 | 254 | 2.6 | 6.1 | 0.00 | 0.00 | 0.00 | 81 | 1015.8 |
| 20260504231803 | 52 | 253 | 2.6 | 7.8 | 0.00 | 0.00 | 0.00 | 79 | 1015.7 |
| 20260504230903 | 51 | 236 | 3.5 | 7.8 | 0.00 | 0.00 | 0.00 | 81 | 1015.7 |
| 20260504230004 | 51 | 236 | 2.6 | 7.0 | 0.00 | 0.00 | 0.00 | 81 | 1015.7 |
| 20260504225403 | 51 | 238 | 3.5 | 8.7 | 0.00 | 0.00 | 0.00 | 81 | 1015.7 |
| 20260504224503 | 51 | 250 | 2.6 | 7.8 | 0.00 | 0.00 | 0.00 | 81 | 1015.7 |
| 20260504223603 | 51 | 257 | 2.6 | 7.0 | 0.00 | 0.00 | 0.00 | 81 | 1015.9 |
| 20260504222703 | 51 | 250 | 2.6 | 6.1 | 0.00 | 0.00 | 0.00 | 81 | 1015.9 |
| 20260504221803 | 52 | 250 | 2.6 | 7.0 | 0.00 | 0.00 | 0.00 | 81 | 1016.0 |
| 20260504220903 | 51 | 246 | 2.6 | 6.1 | 0.00 | 0.00 | 0.00 | 78 | 1016.0 |
| 20260504220003 | 51 | 246 | 2.6 | 7.0 | 0.00 | 0.00 | 0.00 | 81 | 1015.9 |
| 20260504215403 | 51 | 241 | 2.6 | 7.0 | 0.00 | 0.00 | 0.00 | 81 | 1016.0 |
| 20260504214503 | 51 | 246 | 2.6 | 6.1 | 0.00 | 0.00 | 0.00 | 81 | 1016.1 |
| 20260504213603 | 51 | 252 | 2.6 | 6.1 | 0.00 | 0.00 | 0.00 | 81 | 1016.1 |
| 20260504212703 | 51 | 251 | 2.6 | 7.0 | 0.00 | 0.00 | 0.00 | 81 | 1016.1 |
| 20260504211824 | 51 | 249 | 1.7 | 7.0 | 0.00 | 0.00 | 0.00 | 81 | 1016.1 |
| 20260504210903 | 52 | 260 | 2.6 | 7.0 | 0.00 | 0.00 | 0.00 | 81 | 1016.1 |
| 20260504210003 | 51 | 249 | 2.6 | 7.0 | 0.00 | 0.00 | 0.00 | 81 | 1016.1 |
| 20260504205403 | 51 | 251 | 2.6 | 6.1 | 0.00 | 0.00 | 0.00 | 81 | 1016.2 |
| 20260504204503 | 51 | 243 | 2.6 | 5.2 | 0.00 | 0.00 | 0.00 | 81 | 1016.2 |
| 20260504203603 | 51 | 246 | 2.6 | 6.1 | 0.00 | 0.00 | 0.00 | 81 | 1016.2 |
| 20260504202703 | 51 | 238 | 2.6 | 7.8 | 0.00 | 0.00 | 0.00 | 81 | 1016.2 |
| 20260504201803 | 52 | 252 | 2.6 | 8.7 | 0.00 | 0.00 | 0.00 | 77 | 1016.2 |
| 20260504200903 | 52 | 255 | 2.6 | 7.0 | 0.00 | 0.00 | 0.00 | 81 | 1016.0 |